Change the Weather History Date:

Wednesday, May 29, 2013

  Actual Average Record
Temperature  
Mean Temperature 70 °F 63 °F  
Max Temperature 79 °F 74 °F 105 °F (1934)
Min Temperature 60 °F 52 °F 28 °F (1947)
Degree Days  
Heating Degree Days 0 4  
Month to date heating degree days 232 203  
Since 1 July heating degree days 7596 7203  
Cooling Degree Days 5 2  
Month to date cooling degree days 53 32  
Year to date cooling degree days 53 34  
Growing Degree Days 20 (Base 50)    
Moisture  
Dew Point 63 °F    
Average Humidity 79    
Maximum Humidity 100    
Minimum Humidity 58    
Precipitation  
Precipitation 0.64 in 0.15 in 2.36 in (1985)
Month to date precipitation 4.92 2.62  
Year to date precipitation 9.95 6.42  
Snow  
Snow 0.00 in - 0.00 in ()
Month to date snowfall 0.0  
Since 1 July snowfall 54.5  
Snow Depth 0.00 in    
Sea Level Pressure  
Sea Level Pressure 29.57 in    
Wind  
Wind Speed 10 mph (ESE)    
Max Wind Speed 31 mph    
Max Gust Speed 43 mph    
Visibility 8 miles    
Events Rain , Thunderstorm    
T = Trace of Precipitation, MM = Missing Value Source: NWS Daily Summary

Daily Weather History Graph

Daily Weather History Graph

Search for Another Location

Airport or City:

Trip Planner

Search our weather history database for the weather conditions in past years. The results will help you decide how hot, cold, wet, or windy it might be!

Date:

Astronomy

May. 29, 2013 Rise Set
Actual Time 5:54 AM CDT 9:05 PM CDT
Civil Twilight 5:19 AM CDT 9:40 PM CDT
Nautical Twilight 4:34 AM CDT 10:25 PM CDT
Astronomical Twilight 3:40 AM CDT 11:19 PM CDT
Moon 12:24 AM CDT (5/29) 11:00 AM CDT (5/29)
Length of Visible Light 16h 20m
Length of Day
15h 10m
Waning Gibbous, 73% of the Moon is Illuminated
May 29
Waning Gibbous
May 31
Last Quarter
Jun 8
New
Jun 16
First Quarter
Jun 23
Full

Hourly Weather History & Observations

Time (CDT) Temp. Dew Point Humidity Pressure Visibility Wind Dir Wind Speed Gust Speed Precip Events Conditions
12:53 AM 63.0 °F 60.1 °F 90% 29.70 in 10.0 mi Calm Calm - N/A   Clear
1:53 AM 61.0 °F 57.9 °F 90% 29.70 in 10.0 mi ESE 4.6 mph - N/A   Clear
2:53 AM 63.0 °F 60.1 °F 90% 29.70 in 10.0 mi Calm Calm - N/A   Mostly Cloudy
3:53 AM 62.1 °F 59.0 °F 90% 29.68 in 9.0 mi North 4.6 mph - N/A   Partly Cloudy
4:53 AM 61.0 °F 59.0 °F 93% 29.66 in 8.0 mi East 4.6 mph - N/A   Scattered Clouds
5:49 AM 62.6 °F 60.8 °F 94% 29.67 in 9.0 mi SE 8.1 mph - 0.00 in Rain , Thunderstorm Light Thunderstorms and Rain
5:53 AM 63.0 °F 60.1 °F 90% 29.66 in 8.0 mi South 5.8 mph - 0.00 in Rain , Thunderstorm Light Thunderstorms and Rain
6:00 AM 62.6 °F 60.8 °F 94% 29.70 in 4.0 mi SW 6.9 mph - 0.05 in Rain , Thunderstorm Heavy Thunderstorms and Rain
6:10 AM 62.6 °F 60.8 °F 94% 29.67 in 1.5 mi Variable 4.6 mph - 0.26 in Rain , Thunderstorm Thunderstorms and Rain
6:21 AM 62.6 °F 60.8 °F 94% 29.68 in 2.0 mi NW 3.5 mph - 0.35 in Rain , Thunderstorm Thunderstorms and Rain
6:24 AM 62.6 °F 60.8 °F 94% 29.68 in 3.0 mi NE 4.6 mph - 0.35 in Rain , Thunderstorm Light Thunderstorms and Rain
6:36 AM 62.6 °F 60.8 °F 94% 29.67 in 8.0 mi ENE 6.9 mph - 0.35 in Rain , Thunderstorm Light Rain
6:45 AM 62.6 °F 60.8 °F 94% 29.67 in 10.0 mi ENE 8.1 mph - 0.35 in   Overcast
6:53 AM 63.0 °F 61.0 °F 93% 29.65 in 9.0 mi ENE 6.9 mph - 0.35 in   Overcast
7:46 AM 62.6 °F 60.8 °F 94% 29.65 in 5.0 mi East 10.4 mph - N/A   Overcast
7:53 AM 63.0 °F 61.0 °F 93% 29.63 in 6.0 mi East 10.4 mph - N/A   Overcast
8:00 AM 62.6 °F 60.8 °F 94% 29.64 in 6.0 mi East 9.2 mph - N/A   Overcast
8:51 AM 62.6 °F 60.8 °F 94% 29.61 in 3.0 mi East 13.8 mph - N/A   Overcast
8:53 AM 63.0 °F 62.1 °F 97% 29.60 in 3.0 mi East 12.7 mph - N/A   Overcast
9:43 AM 66.2 °F 62.6 °F 88% 29.59 in 5.0 mi SE 17.3 mph - N/A   Overcast
9:53 AM 66.0 °F 63.0 °F 90% 29.58 in 5.0 mi ESE 16.1 mph - N/A   Overcast
10:53 AM 70.0 °F 66.0 °F 87% 29.54 in 8.0 mi ESE 15.0 mph - N/A   Overcast
11:05 AM 69.8 °F 66.2 °F 88% 29.56 in 8.0 mi SE 12.7 mph - N/A   Overcast
11:53 AM 70.0 °F 66.0 °F 87% 29.56 in 7.0 mi SE 16.1 mph - N/A   Overcast
12:40 PM 71.6 °F 66.2 °F 83% 29.59 in 10.0 mi SE 16.1 mph - 0.00 in   Overcast
12:53 PM 72.0 °F 66.9 °F 84% 29.56 in 9.0 mi SE 13.8 mph - 0.00 in   Overcast
1:30 PM 71.6 °F 66.2 °F 83% 29.56 in 8.0 mi SSE 12.7 mph - 0.01 in Rain , Thunderstorm Light Thunderstorms and Rain
1:50 PM 71.6 °F 66.2 °F 83% 29.54 in 9.0 mi SSE 15.0 mph 19.6 mph 0.01 in Thunderstorm Partly Cloudy
1:53 PM 72.0 °F 66.9 °F 84% 29.52 in 9.0 mi SSE 13.8 mph 19.6 mph 0.01 in Thunderstorm Partly Cloudy
2:06 PM 71.6 °F 66.2 °F 83% 29.55 in 10.0 mi SSE 11.5 mph 20.7 mph N/A   Partly Cloudy
2:23 PM 71.6 °F 66.2 °F 83% 29.55 in 10.0 mi SE 12.7 mph - N/A Thunderstorm Mostly Cloudy
2:53 PM 75.9 °F 68.0 °F 76% 29.52 in 10.0 mi SSE 12.7 mph - N/A   Partly Cloudy
3:24 PM 75.2 °F 68.0 °F 78% 29.53 in 4.0 mi SSE 13.8 mph 23.0 mph 0.06 in Rain , Thunderstorm Thunderstorms and Rain
3:33 PM 75.2 °F 69.8 °F 83% 29.52 in 10.0 mi SE 11.5 mph - 0.06 in Rain Light Rain
3:53 PM 78.1 °F 69.1 °F 74% 29.49 in 10.0 mi South 12.7 mph - 0.06 in   Scattered Clouds
4:53 PM 79.0 °F 63.0 °F 58% 29.45 in 10.0 mi South 9.2 mph - N/A   Clear
5:53 PM 75.9 °F 61.0 °F 60% 29.44 in 10.0 mi SW 4.6 mph - N/A   Clear
6:53 PM 73.0 °F 64.9 °F 76% 29.46 in 10.0 mi North 3.5 mph - N/A   Partly Cloudy
7:53 PM 73.0 °F 64.0 °F 73% 29.48 in 10.0 mi Calm Calm - N/A   Mostly Cloudy
8:23 PM 69.8 °F 64.4 °F 83% 29.50 in 10.0 mi East 3.5 mph - N/A Thunderstorm Mostly Cloudy
8:38 PM 71.6 °F 66.2 °F 83% 29.50 in 10.0 mi ESE 4.6 mph - 0.00 in   Overcast
8:53 PM 70.0 °F 66.0 °F 87% 29.47 in 10.0 mi Calm Calm - 0.00 in Rain Light Rain
9:16 PM 69.8 °F 66.2 °F 88% 29.49 in 9.0 mi East 8.1 mph - 0.00 in Rain , Thunderstorm Light Thunderstorms and Rain
9:26 PM 64.4 °F 60.8 °F 88% 29.51 in 2.5 mi ESE 20.7 mph 42.6 mph 0.12 in Rain , Thunderstorm Heavy Thunderstorms and Rain
9:42 PM 62.6 °F 60.8 °F 94% 29.47 in 5.0 mi ESE 13.8 mph 32.2 mph 0.21 in Rain , Thunderstorm Thunderstorms and Rain
9:53 PM 64.9 °F 59.0 °F 81% 29.45 in 10.0 mi ESE 13.8 mph - 0.22 in Rain , Thunderstorm Light Rain
10:05 PM 64.4 °F 59.0 °F 83% 29.47 in 10.0 mi ESE 15.0 mph - 0.00 in Rain Light Rain
10:53 PM 66.0 °F 61.0 °F 84% 29.45 in 10.0 mi SE 18.4 mph 25.3 mph 0.00 in   Partly Cloudy
11:53 PM 64.0 °F 60.1 °F 87% 29.43 in 10.0 mi SSE 15.0 mph - N/A   Clear